User: anonymous   Login
Location: Ostrava
(49.8330°N, 18.2830°E)
Time: 04:26:19
(UTC+02:00)
Language:

Iridium 7 - Orbit

View from above orbital plane
View from above orbital plane
View from above satellite
View from above satellite

Ground track
Ground track

The orbit data is extracted from the following two-line orbital elements,

1 24793U 97020B   17146.53216942 -.00000048 +00000-0 -24129-4 0  9990
2 24793 086.3939 328.0289 0002078 086.7474 273.3960 14.34217330049865
Epoch (UTC): 26 May 2017 12:46:19
Eccentricity: 0.0002078
inclination: 86.3939°
perigee height: 776 km
apogee height: 779 km
right ascension of ascending node: 328.0289°
argument of perigee: 86.7474°
revolutions per day: 14.34217330
mean anomaly at epoch: 273.3960°
orbit number at epoch: 4986

The dashed part of the orbit path shows where the satellite is in the earth's shadow,  

DLR